Theta_e
330 329 328 326 325 324 323 320 316 315 316 315 315 314 312 310 309 307 306 306 305 305 306 306 306 307 306 307 308 311 310 309 304 305 304 306 305 305 306 307 309 308 310
325 324 322 321 320 319 316 314 314 313 313 312 310 308 307 305 303 303 302 302 301 301 302 303 304 309 305 306 307 309 307 307 305 301 303 303 302 305 307 305 307 306 305
322 320 318 317 316 314 313 313 312 311 307 305 303 301 300 300 299 299 300 299 299 299 300 301 303 305 302 302 302 304 304 304 302 300 301 304 305 307 302 302 302 302 304
319 318 316 315 314 312 311 311 311 307 302 300 299 298 298 297 297 297 297 296 296 299 301 302 306 304 300 300 302 301 300 297 297 300 301 302 303 301 299 299 298 300 299
317 315 314 312 311 310 309 309 309 304 301 299 297 296 295 295 296 295 295 294 295 298 302 304 307 305 304 302 300 298 298 298 300 300 299 297 295 294 294 297 297 298 298
315 311 310 309 309 308 308 307 305 303 299 297 294 293 292 294 295 298 297 294 297 298 299 301 303 299 298 298 299 300 301 301 297 295 295 294 293 292 292 293 293 291 290
309 309 308 307 307 307 307 306 304 300 297 294 292 291 289 290 294 295 297 293 293 293 295 296 298 297 295 295 296 298 299 301 302 296 294 295 294 293 292 290 290 289 290
307 306 306 306 305 305 304 303 302 300 297 294 292 289 287 290 294 294 293 289 289 292 297 297 296 295 294 294 293 294 295 296 297 298 295 294 294 294 291 291 290 290 291
304 304 304 304 303 302 301 300 300 299 297 296 292 288 286 286 293 293 290 288 289 291 294 297 297 296 295 294 292 291 293 294 298 298 297 296 295 295 293 288 287 286 285
302 302 303 302 301 300 299 298 297 297 296 296 291 288 290 285 291 291 290 287 286 287 291 293 295 294 293 292 290 290 287 289 290 291 290 291 291 290 292 289 287 284 284
302 302 301 299 296 292 290 290 295 295 295 292 290 288 286 286 285 290 291 286 286 287 288 290 292 293 292 291 292 290 289 291 290 288 288 289 289 289 290 290 289 287 285
301 295 292 291 291 289 287 288 288 290 294 292 288 284 283 283 288 288 289 290 290 285 286 288 289 292 291 291 291 291 291 291 287 286 287 287 287 288 289 290 290 290 289
294 291 288 288 287 286 285 283 285 286 285 283 282 280 281 283 282 287 288 290 291 287 288 292 292 291 291 290 292 291 291 287 285 284 284 285 287 289 290 290 290 291 292
292 290 287 285 284 283 283 283 282 282 281 282 281 279 280 281 282 284 285 284 288 288 289 287 291 290 291 291 289 289 288 286 284 283 283 284 287 288 288 289 288 290 289
293 291 288 286 284 283 283 282 283 282 282 280 279 280 280 281 282 287 287 285 286 288 287 286 285 284 286 285 285 286 285 284 283 283 282 283 285 286 286 288 289 289 287
291 289 287 285 284 283 283 281 287 287 288 287 287 284 283 286 289 290 290 289 289 289 285 283 284 284 284 283 283 283 283 283 282 281 281 283 283 284 284 287 289 288 287
292 289 288 286 284 282 281 281 281 283 288 288 287 288 288 288 289 289 289 289 288 287 283 284 283 284 284 283 282 282 281 281 281 280 280 281 283 283 284 285 287 287 287
291 292 289 287 285 284 283 282 281 282 281 282 286 287 288 289 289 289 289 288 285 286 284 284 284 284 283 282 280 280 280 279 279 279 279 281 282 281 283 284 286 285 286
289 288 287 286 286 286 286 284 284 283 281 281 282 285 287 288 288 288 288 284 283 283 284 284 284 283 282 281 280 279 278 277 278 278 278 280 280 281 282 284 284 285 286
289 289 288 286 285 285 285 285 283 282 281 281 281 281 282 284 282 282 283 283 283 283 283 283 282 282 280 279 279 278 277 277 277 277 279 279 280 281 282 282 282 284 285
287 287 288 286 285 284 284 283 283 283 281 281 281 283 283 282 281 281 281 281 281 282 282 281 280 280 279 279 278 277 276 276 277 279 279 278 279 279 282 282 281 284 285
286 285 285 284 284 283 282 283 282 282 282 281 281 283 283 281 281 281 281 281 281 281 282 281 280 280 279 278 278 277 276 276 276 278 278 278 278 279 281 281 281 282 284
286 285 284 284 284 284 282 281 281 281 281 281 281 282 282 280 280 280 281 280 281 280 281 281 280 278 278 278 279 277 276 276 277 278 278 277 278 279 280 279 280 281 282
285 284 284 283 283 281 280 280 281 282 281 281 282 281 280 280 280 280 280 280 280 280 280 280 279 279 279 279 279 278 278 279 279 278 278 278 278 280 279 279 280 281 281
285 285 284 282 282 281 280 281 281 281 282 282 282 281 280 280 280 280 280 279 279 279 280 280 279 279 279 279 279 279 280 280 279 280 279 279 279 279 279 279 279 280 280
285 285 283 282 282 281 281 281 281 280 281 281 282 281 280 279 279 279 279 279 279 279 279 279 280 280 280 279 280 280 280 279 279 280 279 279 278 278 278 278 279 279 280
Wind_Speed
16 15 15 12 13 10 10 8 7 7 7 7 7 8 8 8 7 7 6 6 6 6 5 5 5 5 4 4 3 2 3 2 4 8 3 7 10 9 9 7 8 7 9
16 17 15 13 14 12 9 7 7 8 7 9 12 11 9 9 8 8 6 6 6 5 5 5 5 4 5 5 4 4 3 3 4 11 9 7 6 10 10 12 6 8 9
16 19 17 14 14 11 9 8 8 11 12 12 11 11 10 8 7 6 5 5 5 5 5 6 6 5 5 4 4 5 4 5 5 5 9 6 8 8 11 11 11 9 8
17 18 18 14 12 10 8 9 12 12 13 12 11 10 8 7 7 5 5 5 5 5 6 6 4 5 6 6 5 6 7 6 5 5 6 8 8 10 9 12 14 9 12
18 18 15 13 13 13 12 12 12 13 12 11 10 8 6 7 6 5 5 6 6 7 6 7 6 9 13 11 6 7 7 6 7 6 6 6 7 10 12 11 12 14 12
17 16 16 15 14 13 11 12 12 12 11 10 9 8 7 7 14 14 9 6 6 6 7 7 5 11 11 13 17 15 10 7 6 6 5 6 7 6 8 11 12 12 11
18 16 15 15 14 12 11 12 12 11 9 8 8 8 8 6 14 13 13 5 5 5 6 6 7 7 9 9 13 14 10 12 8 6 8 8 9 8 8 13 13 12 13
17 16 15 14 13 11 11 11 10 8 8 7 8 7 6 7 14 14 12 5 5 5 6 5 5 7 7 9 9 9 9 8 9 8 8 10 8 8 6 11 13 14 13
15 15 14 13 12 11 11 9 7 8 6 7 7 7 6 6 13 14 10 6 7 7 6 6 6 7 11 13 9 8 8 7 8 14 14 13 13 11 13 9 9 10 12
15 14 13 12 11 10 8 7 4 6 6 8 8 6 11 7 13 13 11 4 6 5 6 6 10 8 13 13 6 6 7 8 9 11 10 7 7 9 16 8 9 9 9
14 14 13 12 12 10 8 4 5 6 9 9 7 5 6 7 6 14 14 5 5 5 5 7 7 14 14 13 10 5 4 10 9 9 7 8 8 9 8 8 9 8 9
15 15 13 11 8 7 10 8 9 9 10 8 6 4 4 6 12 12 15 13 10 4 5 5 6 13 13 13 10 15 12 11 7 9 9 9 11 11 11 11 11 10 10
16 13 12 12 9 8 9 8 8 8 7 5 5 4 4 4 5 15 13 14 12 5 4 7 13 14 13 9 12 14 11 9 10 9 10 10 11 12 14 12 12 12 11
15 13 11 12 9 9 7 6 6 5 5 5 4 4 4 5 6 6 6 6 11 8 9 7 9 9 9 9 9 9 9 10 10 9 10 10 11 11 11 12 12 12 12
13 12 11 8 9 9 7 5 7 4 4 5 3 2 4 5 5 6 4 5 5 5 5 4 5 4 7 9 8 9 9 10 11 10 9 12 11 12 11 12 10 12 11
12 9 8 7 5 6 7 5 9 9 9 7 5 3 2 3 10 12 11 13 14 10 5 4 6 5 7 9 9 9 10 13 11 10 9 11 12 12 13 13 11 12 12
10 9 7 7 6 6 4 5 5 5 6 6 8 10 7 5 9 12 11 12 12 8 4 5 5 6 7 8 9 9 10 10 11 9 9 11 13 13 16 13 13 13 13
8 10 6 5 5 5 4 4 4 4 3 3 7 4 8 8 12 12 11 8 6 7 4 4 6 6 7 8 9 9 9 9 10 10 10 11 12 13 13 14 14 15 14
9 6 5 5 5 6 5 4 4 4 4 3 4 7 7 11 12 13 10 4 4 4 4 5 4 5 6 7 8 8 9 9 10 10 10 10 11 12 13 13 14 20 18
7 11 8 5 5 5 5 5 4 4 5 5 4 3 3 6 5 5 5 4 4 4 4 5 4 4 5 6 7 8 8 8 9 9 11 11 11 11 12 14 14 14 14
6 6 8 5 5 5 5 4 4 5 4 4 3 2 5 5 4 4 5 5 4 4 4 4 4 4 4 6 7 8 9 9 8 10 11 11 11 12 13 12 13 13 14
5 5 5 5 5 5 5 5 4 5 4 5 3 4 7 4 4 4 5 5 4 4 4 3 4 4 4 5 7 8 8 9 10 11 11 11 10 11 11 12 13 14 14
6 6 5 4 5 6 6 5 5 5 5 5 5 4 4 4 4 4 4 4 5 5 4 4 4 3 4 4 5 6 7 9 9 9 11 11 10 10 12 12 13 13 14
6 6 6 5 6 6 6 6 5 6 5 5 5 4 4 4 4 4 4 4 5 5 4 3 3 4 4 5 6 6 6 8 8 9 12 10 10 13 11 12 12 16 13
7 7 7 6 6 5 6 6 5 5 5 4 4 3 3 4 4 4 4 4 4 5 5 4 3 4 5 8 10 11 12 14 12 14 9 10 13 15 12 11 13 13 16
6 6 5 5 5 5 5 5 5 4 4 4 4 3 3 3 2 3 3 4 4 4 5 4 5 6 6 6 10 13 14 15 14 17 10 10 11 12 11 13 17 12 15
Wind_Direction
107 107 108 107 105 104 107 103 104 99 95 94 90 73 62 58 49 58 57 33 40 16 10 13 348 323 330 325 323 293 23 336 299 310 305 311 311 309 304 302 298 310 317
115 109 104 101 102 98 101 100 101 103 91 74 78 75 67 59 46 51 45 23 16 0 349 349 340 347 10 350 357 4 353 330 321 310 314 311 314 311 309 332 330 320 317
115 109 107 110 106 106 108 107 97 78 81 75 80 73 63 50 43 32 26 359 344 352 340 338 328 14 23 5 357 359 341 334 327 297 302 318 315 322 334 318 318 311 306
112 111 103 106 106 96 82 79 91 92 89 83 75 74 65 50 34 14 358 352 354 356 341 334 16 56 41 5 346 351 348 329 303 309 310 319 336 339 315 322 318 319 317
109 106 105 95 93 95 92 91 91 90 87 87 84 71 58 46 22 10 12 4 357 2 3 11 51 44 27 10 353 347 339 328 320 328 332 335 333 337 336 325 313 316 315
107 101 101 99 97 96 97 93 91 89 90 93 83 74 51 32 16 26 31 14 10 23 8 356 85 31 5 359 360 352 343 334 352 333 329 324 321 318 321 323 317 324 319
102 101 100 99 96 96 97 98 97 100 104 91 83 71 56 26 17 22 35 26 22 17 16 15 26 11 7 359 346 344 347 340 326 336 319 306 308 303 309 320 314 306 292
99 100 98 99 97 95 97 98 100 103 105 101 87 70 51 30 25 26 25 13 19 15 20 22 8 2 9 -0 343 340 339 331 322 322 304 298 294 294 298 311 308 299 295
101 100 100 99 96 96 94 98 107 106 101 95 93 78 55 14 22 20 18 11 16 8 3 4 354 345 350 352 338 326 331 327 333 321 314 310 306 320 337 324 319 320 315
102 101 98 95 93 91 97 105 105 103 100 95 85 72 48 27 13 17 18 357 14 356 351 353 339 340 330 344 336 333 338 323 329 331 328 323 323 335 330 323 316 311 314
103 97 86 80 82 82 74 62 91 94 88 89 92 65 41 25 357 14 17 19 9 352 347 348 342 341 338 344 355 351 308 324 331 333 318 325 331 332 332 325 313 304 298
94 90 82 77 80 73 77 70 72 84 95 96 83 45 14 10 13 5 7 13 7 4 351 340 331 352 10 16 17 5 2 347 347 340 339 335 334 333 329 323 312 296 275
96 93 87 79 71 63 76 69 71 72 84 79 72 51 0 350 6 9 10 12 20 29 357 10 20 17 9 7 5 357 5 3 357 352 345 337 330 322 321 321 319 308 298
104 97 88 84 79 68 69 66 79 78 80 81 74 57 15 5 11 1 2 358 10 17 10 8 13 17 11 4 6 6 8 4 1 348 339 330 322 329 331 335 325 333 329
104 102 94 89 89 84 69 71 84 61 93 98 82 75 40 10 331 341 17 7 8 9 16 8 5 4 17 12 8 4 5 2 359 351 345 337 335 333 334 332 330 336 337
110 107 115 114 100 95 96 72 46 64 56 60 73 74 323 265 353 22 35 31 23 26 26 14 15 13 20 11 5 1 3 0 353 347 345 342 344 336 333 334 336 344 337
115 124 119 120 120 117 94 106 100 0 30 23 4 357 12 328 9 29 44 28 22 28 34 17 18 26 18 11 5 3 357 353 344 344 341 338 345 340 338 338 340 340 338
107 119 130 127 127 125 124 124 111 93 76 9 7 10 350 28 45 41 40 26 16 21 18 16 24 32 19 12 5 0 353 347 346 342 344 340 345 343 339 341 342 337 336
109 108 114 119 131 136 139 131 108 84 82 67 39 32 16 39 40 32 34 46 18 12 12 26 22 32 18 9 1 357 352 346 343 340 341 342 341 340 339 338 337 337 337
80 90 87 99 98 101 108 122 119 93 73 66 69 66 12 42 34 20 25 25 17 16 14 23 29 34 14 4 358 355 350 350 346 343 345 341 339 336 337 337 339 335 339
81 83 97 79 81 89 97 118 125 102 90 67 47 54 88 89 59 37 23 19 13 11 14 32 51 31 5 5 2 358 352 348 348 346 342 338 334 335 336 336 335 336 336
97 91 87 97 94 83 87 102 92 96 96 89 67 50 70 69 57 38 26 17 1 5 15 55 65 37 9 4 1 359 354 349 345 344 339 333 329 330 335 337 337 340 341
86 81 77 86 88 76 67 72 85 88 86 82 84 70 64 70 58 36 23 12 5 1 10 55 66 31 359 357 1 355 350 343 331 328 333 330 332 332 338 338 337 341 340
80 85 79 76 79 74 76 74 73 79 81 77 86 81 77 81 57 35 21 15 9 1 17 59 57 41 7 7 3 0 349 343 337 335 333 327 329 341 337 336 340 338 339
87 85 83 83 81 83 75 67 68 71 69 63 75 81 77 83 51 31 14 15 7 14 19 33 37 20 15 5 2 357 351 351 347 344 337 332 339 343 341 335 339 337 342
88 88 91 92 89 84 86 80 73 73 68 53 56 70 86 96 48 23 13 15 7 12 23 27 13 19 10 356 358 356 353 349 348 345 340 344 342 344 342 339 340 341 341